KUIPER-00142

Last updated on Mon Oct 20 2025 00:02:06 GMT+0000 (Coordinated Universal Time)

1 65766U 25217E 25292.25074952 .00036968 00000+0 10274-2 0 9998 2 65766 51.8706 327.8073 0003261 142.8352 217.2860 15.36506954 3661
UTC large
Height (km)
Speed (km/s)
/
Latitude / Longitude
Inclination (degrees)
Orbital Period (minutes)
Azimuth
Elevation
Range (km)
Doppler Factor

Next 0 passes for location: London (51.5072 / 0.1276)

Sorry there are no passes over London.